Barter Island, AK

11:54 PM AKST on December 13, 2017 (GMT -0900)
Barter Island LRRS

Weather History for PABA - January, 2014

Change the Weather History Date:

Wednesday, January 8, 2014

  Actual Average Record
Temperature  
Mean Temperature -12 °F -  
Max Temperature -7 °F 0 °F 39 °F (2005)
Min Temperature -17 °F -11 °F -36 °F (1997)
Degree Days  
Heating Degree Days 77    
Moisture  
Dew Point -19 °F    
Average Humidity 83    
Maximum Humidity 92    
Minimum Humidity 77    
Precipitation  
Precipitation 0.00 in - - ()
Sea Level Pressure  
Sea Level Pressure 29.89 in    
Wind  
Wind Speed 15 mph (WSW)    
Max Wind Speed 18 mph    
Max Gust Speed -    
Visibility 4 miles    
Events Fog , Snow    
Averages and records for this station are not official NWS values.
T = Trace of Precipitation, MM = Missing Value Source: NWS Daily Summary

Daily Weather History Graph

Daily Weather History Graph

Search for Another Location

Airport or City:

Trip Planner

Search our weather history database for the weather conditions in past years. The results will help you decide how hot, cold, wet, or windy it might be!

Date:

Astronomy

Jan. 08, 2014 Rise Set
Actual Time 12:08 PM AKST 1:13 PM AKST
Civil Twilight 10:11 AM AKST 3:11 PM AKST
Nautical Twilight 8:32 AM AKST 4:50 PM AKST
Astronomical Twilight 7:14 AM AKST 6:08 PM AKST
Moon 10:50 AM AKST (1/8) 2:33 AM AKST (1/8)
Length of Visible Light 4h 59m
Length of Day
1h 04m
First Quarter, 57% of the Moon is Illuminated
Jan 8
First Quarter
Jan 15
Full
Jan 23
Last Quarter
Jan 30
New
Feb 6
First Quarter

Hourly Weather History & Observations

Time (AKST) Temp. Windchill Dew Point Humidity Pressure Visibility Wind Dir Wind Speed Gust Speed Precip Events Conditions
12:01 AM -7.1 °F -28.4 °F -11.0 °F 83% 29.95 in 4.0 mi West 15.0 mph - 0.00 in Snow Light Snow
1:01 AM -13.0 °F -35.2 °F -17.0 °F 82% 29.94 in 9.0 mi West 13.8 mph - 0.00 in Snow Light Snow
2:01 AM -15.0 °F -37.7 °F -20.0 °F 78% 29.95 in 9.0 mi West 13.8 mph - 0.00 in Snow Light Snow
3:01 AM -16.1 °F -39.1 °F -20.9 °F 79% 29.93 in 10.0 mi West 13.8 mph - 0.00 in   Clear
4:01 AM -16.1 °F -39.1 °F -20.9 °F 79% 29.92 in 10.0 mi West 13.8 mph - 0.00 in Snow Light Snow
5:01 AM -16.6 °F -40.6 °F -20.2 °F 84% 29.91 in 10.0 mi West 15.0 mph - 0.00 in   Scattered Clouds
5:10 AM -16.6 °F -40.6 °F -20.2 °F 84% 29.91 in 10.0 mi West 15.0 mph - 0.00 in   Mostly Cloudy
6:01 AM -16.1 °F -39.1 °F -20.0 °F 82% 29.91 in 10.0 mi WSW 13.8 mph - 0.00 in   Overcast
7:01 AM -14.1 °F -36.6 °F -18.0 °F 82% 29.91 in 10.0 mi WSW 13.8 mph - N/A   Overcast
8:01 AM -13.0 °F -33.4 °F -17.0 °F 82% 29.90 in 10.0 mi West 11.5 mph - N/A   Overcast
9:01 AM -15.0 °F -36.8 °F -18.9 °F 82% 29.89 in 7.0 mi WSW 12.7 mph - N/A   Mostly Cloudy
9:10 AM -14.8 °F -35.6 °F -18.4 °F 84% 29.89 in 8.0 mi WSW 11.5 mph - N/A   Scattered Clouds
9:21 AM -14.8 °F -35.6 °F -18.4 °F 84% 29.89 in 7.0 mi West 11.5 mph - N/A   Mostly Cloudy
10:01 AM -14.1 °F -34.7 °F -18.0 °F 82% 29.90 in 9.0 mi WSW 11.5 mph - 0.00 in Snow Light Snow
10:29 AM -14.8 °F -36.6 °F -18.4 °F 84% 29.89 in 8.0 mi WSW 12.7 mph - 0.00 in Snow Light Snow
10:52 AM -14.8 °F -37.5 °F -18.4 °F 84% 29.89 in 1.8 mi WSW 13.8 mph - 0.00 in Snow Light Snow
11:01 AM -14.8 °F -36.6 °F -18.4 °F 84% 29.89 in 1.0 mi WSW 12.7 mph - 0.00 in Snow Light Snow
11:08 AM -14.8 °F -37.5 °F -18.4 °F 84% 29.89 in 1.8 mi WSW 13.8 mph - 0.00 in Snow Light Snow
11:32 AM -13.0 °F -36.0 °F -18.4 °F 77% 29.89 in 1.0 mi WSW 15.0 mph - N/A Snow Light Snow
12:01 PM -13.0 °F -34.3 °F -16.6 °F 84% 29.89 in 2.5 mi West 12.7 mph - N/A Snow Light Snow
12:11 PM -13.0 °F -35.2 °F -16.6 °F 84% 29.90 in 0.8 mi WSW 13.8 mph - N/A Snow Light Snow
12:23 PM -13.0 °F -34.3 °F -16.6 °F 84% 29.90 in 2.5 mi West 12.7 mph - N/A Snow Light Snow
12:30 PM -13.0 °F -34.3 °F -18.4 °F 77% 29.90 in 7.0 mi West 12.7 mph - N/A Snow Light Snow
12:57 PM -13.0 °F -35.2 °F -18.4 °F 77% 29.90 in 1.8 mi West 13.8 mph - N/A Snow Light Snow
1:01 PM -13.0 °F -34.3 °F -18.4 °F 77% 29.90 in 1.0 mi West 12.7 mph - N/A Snow Light Snow
1:24 PM -13.0 °F -36.0 °F -18.4 °F 77% 29.89 in 0.5 mi WSW 15.0 mph - N/A Snow Snow
1:52 PM -14.8 °F -37.5 °F -18.4 °F 84% 29.89 in 0.2 mi WSW 13.8 mph - N/A Fog , Snow Light Snow
1:59 PM -14.8 °F -38.3 °F -18.4 °F 84% 29.89 in 0.5 mi WSW 15.0 mph - N/A Fog , Snow Snow
2:01 PM -14.1 °F -37.4 °F -18.0 °F 82% 29.89 in 0.5 mi WSW 15.0 mph - N/A Fog , Snow Snow
2:24 PM -14.8 °F -39.8 °F -18.4 °F 84% 29.90 in 0.2 mi WSW 17.3 mph - N/A Snow Heavy Snow
2:38 PM -14.8 °F -39.1 °F -18.4 °F 84% 29.90 in 0.5 mi WSW 16.1 mph - N/A Fog , Snow Snow
2:48 PM -14.8 °F -39.8 °F -18.4 °F 84% 29.90 in 0.8 mi WSW 17.3 mph - N/A Snow Light Snow
3:17 PM -14.8 °F -39.8 °F -18.4 °F 84% 29.89 in 0.8 mi West 17.3 mph - N/A Snow Light Snow
3:46 PM -14.8 °F -39.1 °F -18.4 °F 84% 29.89 in 1.0 mi West 16.1 mph - N/A Snow Light Snow
4:01 PM -14.8 °F -38.3 °F -18.4 °F 84% 29.88 in 1.0 mi West 15.0 mph - N/A Snow Light Snow
4:32 PM -14.8 °F -39.8 °F -18.4 °F 84% 29.88 in 1.2 mi WSW 17.3 mph - N/A Snow Light Snow
4:46 PM -14.8 °F -39.1 °F -18.4 °F 84% 29.88 in 1.0 mi WSW 16.1 mph - N/A Snow Light Snow
5:11 PM -14.8 °F -38.3 °F -18.4 °F 84% 29.87 in 1.0 mi WSW 15.0 mph - N/A Snow Light Snow
5:19 PM -14.8 °F -39.1 °F -18.4 °F 84% 29.87 in 1.2 mi WSW 16.1 mph - N/A Snow Light Snow
5:31 PM -14.8 °F -39.1 °F -18.4 °F 84% 29.87 in 1.2 mi WSW 16.1 mph - N/A Snow Light Snow
6:01 PM -14.1 °F -38.2 °F -18.0 °F 82% 29.87 in 1.2 mi West 16.1 mph - N/A Snow Light Snow
6:22 PM -14.8 °F -37.5 °F -16.6 °F 92% 29.87 in 3.0 mi West 13.8 mph - 0.00 in Snow Light Snow
7:01 PM -14.1 °F -37.4 °F -17.0 °F 87% 29.87 in 4.0 mi WSW 15.0 mph - 0.00 in Snow Light Snow
8:01 PM -14.1 °F -36.6 °F -18.0 °F 82% 29.86 in 3.0 mi West 13.8 mph - 0.00 in Snow Light Snow
8:08 PM -14.8 °F -39.1 °F -18.4 °F 84% 29.86 in 2.5 mi West 16.1 mph - 0.00 in Snow Light Snow
8:26 PM -14.8 °F -39.8 °F -18.4 °F 84% 29.86 in 2.0 mi West 17.3 mph - 0.00 in Snow Light Snow
8:37 PM -14.8 °F -40.5 °F -18.4 °F 84% 29.86 in 1.5 mi West 18.4 mph - 0.00 in Snow Light Snow
9:01 PM -16.6 °F -42.9 °F -20.2 °F 84% 29.87 in 1.0 mi WSW 18.4 mph - 0.00 in Snow Light Snow
9:21 PM -16.6 °F -42.9 °F -20.2 °F 84% 29.87 in 1.0 mi WSW 18.4 mph - 0.00 in Snow Light Snow
9:30 PM -16.6 °F -42.9 °F -20.2 °F 84% 29.87 in 1.2 mi WSW 18.4 mph - 0.00 in Snow Light Snow
9:43 PM -16.6 °F -42.1 °F -20.2 °F 84% 29.87 in 1.5 mi WSW 17.3 mph - 0.00 in Snow Light Snow
10:01 PM -17.0 °F -43.3 °F -20.9 °F 82% 29.87 in 1.2 mi WSW 18.4 mph - 0.00 in Snow Light Snow
10:30 PM -16.6 °F -42.9 °F -20.2 °F 84% 29.87 in 1.5 mi WSW 18.4 mph - 0.00 in Snow Light Snow
11:01 PM -16.6 °F -42.1 °F -20.2 °F 84% 29.87 in 1.0 mi West 17.3 mph - 0.00 in Snow Light Snow
11:34 PM -14.8 °F -39.1 °F -20.2 °F 77% 29.88 in - West 16.1 mph - N/A Snow Light Snow
11:43 PM -14.8 °F -39.8 °F -20.2 °F 77% 29.88 in 1.0 mi West 17.3 mph - N/A Snow Light Snow